Simultaneous Nadir Overpasses (SNOs) Predictions

Prediction of SNOs near equator between NOAA-19 and NPP Satellite Orbit:

Table of predicted SNOs near equator for the next 14.0 days since TLE Epoch: 3/14/2013
Index Date (NOAA-19) Time (NOAA-19) NOAA-19 Lat,Lon Date (NPP) Time (NPP) NPP Lat,Lon Distance(km) Time Diff (sec)
1 03/20/2013 08:09:30 30.00, 76.58 03/20/2013 08:01:09 29.79, 75.59 98.79 501
2 03/20/2013 09:00:33 -29.96,-116.17 03/20/2013 08:51:50 -29.76,-117.08 90.17 523
3 03/20/2013 09:51:34 29.96, 51.07 03/20/2013 09:42:39 29.79, 50.21 85.28 535
4 03/20/2013 10:42:38 -29.97,-141.70 03/20/2013 10:33:21 -29.82,-142.47 76.57 557
5 03/20/2013 11:33:39 29.98, 25.55 03/20/2013 11:24:10 29.85, 24.82 71.74 569
6 03/20/2013 12:24:43 -29.99,-167.22 03/20/2013 12:14:52 -29.88,-167.86 63.03 591
7 03/20/2013 13:15:4
